Weather History for KLWM - January, 2013

Change the Weather History Date:

Wednesday, January 30, 2013

  Actual Average Record
Temperature  
Mean Temperature 48 °F -  
Max Temperature 62 °F 35 °F 62 °F (2013)
Min Temperature 33 °F 16 °F -12 °F (1936)
Degree Days  
Heating Degree Days 18    
Moisture  
Dew Point 43 °F    
Average Humidity 86    
Maximum Humidity 94    
Minimum Humidity 75    
Precipitation  
Precipitation 0.07 in - - ()
Sea Level Pressure  
Sea Level Pressure 29.85 in    
Wind  
Wind Speed 3 mph (SSW)    
Max Wind Speed 17 mph    
Max Gust Speed 32 mph    
Visibility 4 miles    
Events Fog , Rain    
Averages and records for this station are not official NWS values.
T = Trace of Precipitation, MM = Missing Value Source: NWS Daily Summary

Daily Weather History Graph

Daily Weather History Graph

Search for Another Location

Airport or City:

Trip Planner

Search our weather history database for the weather conditions in past years. The results will help you decide how hot, cold, wet, or windy it might be!

Date:

Astronomy

Jan. 30, 2013 Rise Set
Actual Time 7:00 AM EST 4:55 PM EST
Civil Twilight 6:30 AM EST 5:25 PM EST
Nautical Twilight 5:56 AM EST 5:59 PM EST
Astronomical Twilight 5:23 AM EST 6:32 PM EST
Moon 8:57 PM EST (1/30) 8:20 AM EST (1/30)
Length of Visible Light 10h 54m
Length of Day
9h 54m
Waning Gibbous, 88% of the Moon is Illuminated
Jan 30
Waning Gibbous
Feb 3
Last Quarter
Feb 10
New
Feb 17
First Quarter
Feb 25
Full

Hourly Weather History & Observations

Time (EST) Temp. Windchill Dew Point Humidity Pressure Visibility Wind Dir Wind Speed Gust Speed Precip Events Conditions
12:51 AM 33.8 °F - 30.2 °F 87% 30.15 in 2.0 mi Calm Calm - 0.01 in Rain Light Rain
12:54 AM 34.0 °F - 30.9 °F 89% 30.15 in 2.0 mi Calm Calm - 0.01 in Rain Light Rain
1:08 AM 33.8 °F - 30.2 °F 87% 30.14 in 2.5 mi Calm Calm - 0.00 in Rain Light Rain
1:20 AM 35.6 °F - 32.0 °F 87% 30.14 in 3.0 mi Calm Calm - N/A   Overcast
1:34 AM 35.6 °F - 30.2 °F 81% 30.14 in 2.5 mi Calm Calm - 0.02 in Rain Light Rain
1:46 AM 35.6 °F - 32.0 °F 87% 30.13 in 3.0 mi Calm Calm - 0.03 in Rain Light Rain
1:54 AM 35.1 °F - 32.0 °F 89% 30.14 in 2.5 mi Calm Calm - 0.03 in Rain Light Rain
2:01 AM 35.6 °F - 32.0 °F 87% 30.13 in 3.0 mi Calm Calm - 0.00 in Rain Light Rain
2:54 AM 36.0 °F 33.3 °F 33.1 °F 89% 30.09 in 3.0 mi SSE 3.5 mph - 0.00 in Rain Light Rain
3:54 AM 37.0 °F 34.5 °F 34.0 °F 89% 30.05 in 4.0 mi SSE 3.5 mph - 0.00 in   Overcast
4:06 AM 37.4 °F 34.9 °F 33.8 °F 87% 30.04 in 2.0 mi SSE 3.5 mph - N/A   Overcast
4:22 AM 37.4 °F - 33.8 °F 87% 30.04 in 1.5 mi Calm Calm - N/A   Overcast
4:54 AM 37.0 °F - 35.1 °F 93% 30.04 in 1.2 mi Calm Calm - N/A   Overcast
5:54 AM 37.9 °F - 35.1 °F 89% 30.02 in 1.5 mi Calm Calm - N/A   Overcast
6:54 AM 37.9 °F - 36.0 °F 93% 29.98 in 1.5 mi Calm Calm - N/A   Overcast
7:41 AM 37.4 °F - 35.6 °F 93% 29.95 in 0.8 mi Calm Calm - N/A   Overcast
7:54 AM 39.0 °F - 37.0 °F 93% 29.95 in 0.8 mi Calm Calm - N/A   Overcast
8:24 AM 39.2 °F - 37.4 °F 93% 29.92 in 1.0 mi Calm Calm - N/A   Overcast
8:54 AM 39.9 °F - 37.9 °F 93% 29.91 in 1.0 mi Calm Calm - N/A   Overcast
9:05 AM 41.0 °F - 37.4 °F 87% 29.90 in 0.8 mi Calm Calm - N/A   Overcast
9:30 AM 42.8 °F - 39.2 °F 87% 29.88 in 0.5 mi Calm Calm - N/A Fog Fog
9:54 AM 41.0 °F - 37.4 °F 87% 29.86 in 0.2 mi Calm Calm - N/A Fog Fog
10:54 AM 41.0 °F - 37.9 °F 89% 29.83 in 0.2 mi Calm Calm - N/A Fog Fog
11:47 AM 51.8 °F - 48.2 °F 88% 29.77 in 1.0 mi SSW 8.1 mph - N/A   Overcast
11:54 AM 52.0 °F - 50.0 °F 93% 29.76 in 2.0 mi Variable 5.8 mph - N/A   Overcast
12:15 PM 53.6 °F - 51.8 °F 94% 29.75 in 3.0 mi SSW 10.4 mph - N/A   Overcast
12:50 PM 55.4 °F - 51.8 °F 88% 29.73 in 4.0 mi Variable 5.8 mph - N/A   Overcast
12:54 PM 55.0 °F - 52.0 °F 89% 29.73 in 4.0 mi Variable 5.8 mph - N/A   Overcast
1:54 PM 57.0 °F - 53.1 °F 87% 29.68 in 6.0 mi South 8.1 mph - N/A   Overcast
2:54 PM 57.9 °F - 53.1 °F 84% 29.64 in 8.0 mi SSW 8.1 mph - N/A   Overcast
3:16 PM 59.0 °F - 53.6 °F 82% 29.63 in 8.0 mi SSW 8.1 mph - N/A   Overcast
3:54 PM 59.0 °F - 53.1 °F 81% 29.62 in 9.0 mi SW 10.4 mph - N/A   Overcast
4:54 PM 61.0 °F - 54.0 °F 78% 29.62 in 10.0 mi SSW 13.8 mph 26.5 mph N/A   Overcast
5:54 PM 62.1 °F - 54.0 °F 75% 29.59 in 10.0 mi SSW 16.1 mph 32.2 mph N/A   Overcast
6:54 PM 62.1 °F - 54.0 °F 75% 29.58 in 10.0 mi SSW 11.5 mph 24.2 mph N/A   Overcast
7:54 PM 62.1 °F - 55.0 °F 78% 29.57 in 9.0 mi SSW 12.7 mph 20.7 mph 0.00 in Rain Light Rain
8:54 PM 62.1 °F - 55.0 °F 78% 29.54 in 10.0 mi SSW 13.8 mph 23.0 mph 0.00 in   Overcast
9:54 PM 62.1 °F - 55.0 °F 78% 29.52 in 10.0 mi SSW 17.3 mph 26.5 mph N/A   Overcast
10:28 PM 60.8 °F - 55.4 °F 82% 29.51 in 10.0 mi SSW 13.8 mph 27.6 mph 0.01 in Rain Light Rain
10:54 PM 60.1 °F - 55.0 °F 83% 29.50 in 6.0 mi SSW 13.8 mph 25.3 mph 0.03 in Rain Light Rain
11:54 PM 59.0 °F - 55.0 °F 87% 29.46 in 7.0 mi South 12.7 mph 21.9 mph 0.00 in Rain Light Rain